sat.trackr.live / text

‹ back to catalog

SHIJIAN-20 (SJ-20)

NORAD 44910 · 2019-097A

PAYLOAD ACTIVE UNKNOWN

§ Identity

Operator
Country
PRC
Launch date
2019-12-27
Launch site
WSC
Launch vehicle
Mass (kg)
RCS (m²)

Purposes: comms

External: N2YO · Heavens-Above · Gunter

§ Orbital elements

Epoch: 2026-09-20T03:25:34.509792Z

Period
1,436.03 min
Inclination
5.1562°
Eccentricity
0.0002984
Mean motion
1.00276741 rev/d
Perigee alt
35,772.6 km
Apogee alt
35,797.8 km
Semi-major
42,163.3 km
B*
0.0000e+0
RAAN
73.8415°
Arg perigee
170.0024°
Mean anomaly
206.9817°
Rev number
2,465

§ Raw data

SHIJIAN-20 (SJ-20)1 44910U 19097A   26263.14276053  .00000145  00000+0  00000+0 0  99992 44910   5.1562  73.8415 0002984 170.0024 206.9817  1.00276741 24652

JSON: /api/v1/satellites/44910 · /tle

For live sub-satellite position, see the globe view (requires WebGL).

§ Visibility from observer

Set your observer location to see the next 7 days of passes ≥ 10°. The values pass through the URL so the page stays shareable.

No JS? Fill the form by hand. The geolocation button needs JavaScript.